This demonstration page uses our WeatherBlox Daily Observations layout. Learn more.

Left ArrowRight Arrow

47.50024, -111.30081

Hourly Observations for November 27, 2022

Temp ( °F °C ) Dew Point ( °F °C ) Humidity (%) Winds ( mph kmh ) Pressure ( in mb ) Visibility ( mi km ) Precip ( " mm )
12:53 am 00:53 Clear 34 1.1 19 -7.2 54 54 SW 21 33 29.87 1012 10 16 0.00 0.00
1:53 am 01:53 Clear 34 1.1 19 -7.2 54 54 SSW 17 28 29.83 1010 10 16 0.00 0.00
2:53 am 02:53 Clear 35 1.7 19 -7.2 52 52 SW 28 44 29.80 1009 10 16 0.00 0.00
3:53 am 03:53 Mostly Cloudy 35 1.7 19 -7.2 52 52 SW 35 56 29.76 1008 10 16 0.00 0.00
4:53 am 04:53 Clear 34 1.1 20 -6.7 56 56 SSW 21 33 29.80 1009 10 16 0.00 0.00
5:53 am 05:53 Clear 35 1.7 20 -6.7 54 54 SSW 26 43 29.78 1009 10 16 0.00 0.00
6:53 am 06:53 Clear 35 1.7 19 -7.2 52 52 SW 30 48 29.75 1008 10 16 0.00 0.00
7:53 am 07:53 Mostly Sunny 35 1.7 19 -7.2 52 52 SW 23 37 29.74 1007 10 16 0.00 0.00
8:53 am 08:53 Sunny 36 2.2 20 -6.7 52 52 SW 26 43 29.70 1006 10 16 0.00 0.00
9:53 am 09:53 Sunny 38 3.3 19 -7.2 46 46 SSW 30 48 29.65 1004 10 16 0.00 0.00
10:53 am 10:53 Sunny 41 5 20 -6.7 42 42 SW 24 39 29.62 1003 10 16 0.00 0.00
11:53 am 11:53 Sunny 41 5 21 -6.1 44 44 SW 26 43 29.56 1001 10 16 0.00 0.00
12:53 pm 12:53 Sunny 44 6.7 22 -5.6 41 41 SW 28 44 29.52 1000 10 16 0.00 0.00
1:53 pm 13:53 Mostly Sunny 45 7.2 22 -5.6 40 40 SW 26 43 29.49 999 10 16 0.00 0.00
2:53 pm 14:53 Cloudy with Light Wintry Mix 33 0.6 28 -2.2 81 81 WNW 24 39 29.53 1000 10 16 0.01 0.13
3:14 pm 15:14 Windy with Snow Likely 33 0.6 30 -1.1 88 88 W 36 57 29.55 1001 2 2 0.01 0.13
3:21 pm 15:21 Cloudy with Snow 31 -0.6 30 -1.1 96 96 W 25 41 29.57 1001 1 1 0.01 0.13
3:25 pm 15:25 Windy with Snow Likely 32 0 29 -1.7 88 88 W 26 43 29.55 1001 1 2 0.01 0.13
3:27 pm 15:27 Windy with Snow Likely 32 0 28 -2.2 85 85 W 26 43 29.54 1000 3 4 0.01 0.13
3:34 pm 15:34 Mostly Cloudy 33 0.6 27 -2.8 78 78 WSW 23 37 29.53 1000 9 14 0.01 0.13
3:53 pm 15:53 Partly Cloudy 34 1.1 23 -5 64 64 WSW 25 41 29.52 1000 10 16 0.01 0.13
4:53 pm 16:53 Mostly Cloudy 33 0.6 18 -7.8 53 53 WSW 23 37 29.57 1001 10 16 0.00 0.00
5:53 pm 17:53 Clear 30 -1.1 18 -7.8 60 60 W 20 31 29.60 1002 10 16 0.00 0.00
6:53 pm 18:53 Clear 28 -2.2 16 -8.9 60 60 WNW 20 31 29.66 1005 10 16 0.00 0.00
7:53 pm 19:53 Mostly Clear 25 -3.9 20 -6.7 81 81 NW 20 31 29.72 1007 10 16 0.00 0.00
8:53 pm 20:53 Clear 22 -5.6 19 -7.2 88 88 NW 15 24 29.75 1008 10 16 0.00 0.00
9:53 pm 21:53 Partly Cloudy 22 -5.6 19 -7.2 88 88 NW 8 13 29.78 1009 10 16 0.00 0.00
10:53 pm 22:53 Mostly Cloudy 22 -5.6 19 -7.2 88 88 NW 9 15 29.78 1009 10 16 0.00 0.00
11:53 pm 23:53 Mostly Cloudy 20 -6.7 18 -7.8 92 92 NNW 12 19 29.80 1009 10 16 0.00 0.00

Powered by AerisWeather